Regional Weather Roundup
Issued by NWS

Home | Current Version | Previous Version | Text Only | Print | Product List | Glossary On
Versions: 1 2 3 4 5 6 7 8 9 10 11 12 13 14 15 16 17 18 19 20 21 22 23 24 25 26 27 28 29 30 31 32 33 34 35 36 37 38 39 40 41 42 43 44 45 46 47 48 49 50
543
ASUS43 KOAX 081602
RWRNE

WEATHER ROUNDUP FOR NEBRASKA
NATIONAL WEATHER SERVICE OMAHA NE
1000 AM CST MON FEB 08 2016

NOTES: SATELLITE DATA IS BEING USED TO AUGMENT CLOUD COVER ABOVE
       12000 FEET.
       "FAIR" INDICATES FEW OR NO CLOUDS BELOW 12,000 FEET WITH NO
       SIGNIFICANT WEATHER AND/OR OBSTRUCTIONS TO VISIBILITY.

  * THESE STATIONS DO NOT REPORT WEATHER SUCH AS RAIN...SNOW OR FOG.

NEZ001>004-019>022-054>056-081700-
NEBRASKA PANHANDLE

CITY           SKY/WX    TMP DP  RH WIND       PRES   REMARKS
SCOTTSBLUFF    CLOUDY    31  16  54 NW14      30.39R WCI  21
ALLIANCE       CLOUDY    28  11  48 NW20      30.35R WCI  15
CHADRON        MOSUNNY   30  13  49 NW17G29   30.40R WCI  18
SIDNEY         CLOUDY    26  13  57 NW10      30.36R WCI  16
$$

NEZ057>060-069>072-079>082-081700-
SOUTHWEST NEBRASKA

CITY           SKY/WX    TMP DP  RH WIND       PRES   REMARKS
NORTH PLATTE   SUNNY     29  14  53 NW21G28   30.32R WCI  16
IMPERIAL       CLOUDY    29  11  47 NW20G29   30.36R WCI  16
MCCOOK         SUNNY     29  15  56 NW22G31   30.34R WCI  15
$$

NEZ005>010-023>029-035>040-094-081700-
NORTH CENTRAL NEBRASKA

CITY           SKY/WX    TMP DP  RH WIND       PRES   REMARKS
AINSWORTH      SUNNY     29  15  55 NW29G37   30.27R WCI  14
BROKEN BOW     SUNNY     29  15  56 NW30G43   30.24R WCI  13
ORD            SUNNY     29  16  58 NW29G39   30.21R WCI  14
$$

NEZ041-046>049-061>064-073>077-083>087-081700-
SOUTH CENTRAL NEBRASKA

CITY           SKY/WX    TMP DP  RH WIND       PRES   REMARKS
GRAND ISLAND   SUNNY     28  16  60 NW28G35   30.21R WCI  13
HASTINGS       SUNNY     29  16  58 NW25G36   30.20R WCI  14
$$

NEZ011>018-030>034-042>045-081700-
NORTHEAST NEBRASKA

CITY           SKY/WX    TMP DP  RH WIND       PRES   REMARKS
NORFOLK        CLOUDY    28  17  63 N29G38    30.13R WCI  12
BLAIR          CLOUDY    27  18  70 NW39G46   30.06R WCI   9
COLUMBUS *     CLOUDY    28  12  50 NW26G37   30.14S WCI  13
FREMONT        CLOUDY    28  19  68 NW24G31   30.11S WCI  13
TEKAMAH        MIX PCPN  27  16  63 N37G49    30.10R WCI   9
$$

NEZ050>053-065>068-078-088>093-081700-
SOUTHEAST NEBRASKA

CITY           SKY/WX    TMP DP  RH WIND       PRES   REMARKS
LINCOLN        CLOUDY    29  18  63 NW21G37   30.14R WCI  16
OMAHA EPPLEY   FLURRIES  27  18  69 N33G40    30.08R WCI  10
BEATRICE       CLOUDY    30  18  59 N32G46    30.15R WCI  15
FALLS CITY     CLOUDY    31  17  56 N23G44    30.08R WCI  18
NEBRASKA CITY  CLOUDY    29  19  66 N32G38    30.08R WCI  13
$$

NEZ044-045-051>053-067-081700-
OMAHA AREA

CITY           SKY/WX    TMP DP  RH WIND       PRES   REMARKS
OMAHA EPPLEY   FLURRIES  27  18  69 N33G40    30.08R WCI  10
BLAIR          CLOUDY    27  18  70 NW39G46   30.06R WCI   9
FREMONT        CLOUDY    28  19  68 NW24G31   30.11S WCI  13
OFFUTT AFB     FLURRIES  28  17  62 NW29G40   30.08R WCI  12
WAHOO          CLOUDY    29  20  70 NW25G35   30.11R WCI  14
$$




USA.gov is the U.S. government's official web portal to all federal, state and local government web resources and services.